This is the latest recevied weather packets stored in our database for station/object N9BSW. If no packets are shown the sender has not sent any weather packets the latest 10 day(s).
| Time | Temp. | Humidity | Pressure | Rain* | Wind** | Luminosity | Snow |
|---|---|---|---|---|---|---|---|
| 1776940948 | 12.78° C | 91% | 1015.9 hPa | 0 mm | - | 0 W/m² | - |
| 1776940645 | 12.78° C | 91% | 1015.9 hPa | 0 mm | - | 0 W/m² | - |
| 1776940341 | 12.22° C | 91% | 1015.9 hPa | 0 mm | - | 0 W/m² | - |
| 1776940038 | 12.22° C | 91% | 1015.7 hPa | 0 mm | - | 0 W/m² | - |
| 1776939734 | 12.78° C | 90% | 1015.8 hPa | 0 mm | - | 0 W/m² | - |
| 1776939432 | 12.78° C | 90% | 1015.9 hPa | 0 mm | - | 0 W/m² | - |
| 1776939130 | 12.78° C | 90% | 1015.7 hPa | 0 mm | - | 0 W/m² | - |
| 1776938827 | 12.78° C | 90% | 1015.8 hPa | 0 mm | - | 0 W/m² | - |
| 1776938525 | 13.33° C | 89% | 1015.8 hPa | 0 mm | - | 0 W/m² | - |
| 1776938222 | 13.33° C | 90% | 1015.7 hPa | 0 mm | - | 0 W/m² | - |
| 1776937918 | 13.33° C | 90% | 1015.5 hPa | 0 mm | - | 0 W/m² | - |
| 1776937615 | 12.78° C | 89% | 1015.3 hPa | 0 mm | - | 0 W/m² | - |
| 1776937311 | 13.33° C | 88% | 1015.6 hPa | 0 mm | - | 0 W/m² | - |
| 1776937009 | 13.33° C | 88% | 1015.4 hPa | 0 mm | - | 0 W/m² | - |
| 1776936705 | 13.33° C | 88% | 1015.5 hPa | 0 mm | - | 0 W/m² | - |
| 1776936404 | 13.33° C | 89% | 1015.6 hPa | 0 mm | - | 0 W/m² | - |
| 1776936100 | 13.33° C | 90% | 1015.4 hPa | 0 mm | - | 0 W/m² | - |
| 1776935798 | 12.78° C | 90% | 1015.4 hPa | 0 mm | - | 0 W/m² | - |
| 1776935493 | 12.78° C | 89% | 1015.3 hPa | 0 mm | - | 0 W/m² | - |
| 1776935191 | 12.78° C | 89% | 1015.7 hPa | 0 mm | - | 0 W/m² | - |
| 1776934886 | 13.33° C | 89% | 1015.5 hPa | 0 mm | - | 0 W/m² | - |
| 1776934584 | 13.33° C | 88% | 1015.5 hPa | 0 mm | - | 0 W/m² | - |
| 1776934282 | 13.33° C | 88% | 1015.5 hPa | 0 mm | - | 0 W/m² | - |
| 1776933979 | 13.33° C | 87% | 1015.6 hPa | 0 mm | - | 0 W/m² | - |
| 1776933675 | 13.89° C | 87% | 1015.8 hPa | 0 mm | - | 0 W/m² | - |
* Rain latest hour (hover to see other rain measurements)
** Current wind speed in m/s (hover to see current wind gust speed)